Theta_e
311 313 316 317 319 321 322 322 320 320 321 322 322 322 322 327 330 332 336 336 333 333 335 343 344 340 335 332 330 329 329 328 329 327 325 325 327 328 330 332 332 335 337
308 310 313 316 318 319 321 321 320 319 320 320 320 320 320 323 326 329 332 334 328 326 331 337 334 335 327 326 324 324 325 330 328 323 318 313 316 319 323 326 331 333 335
306 309 311 312 313 313 317 320 318 318 318 318 319 318 318 319 321 324 327 330 331 329 324 326 328 330 329 327 325 323 329 324 326 325 319 312 310 312 318 321 324 324 328
306 306 307 309 311 312 313 314 318 317 318 316 315 313 313 313 317 322 326 330 330 328 327 325 324 324 324 324 325 329 327 325 321 321 324 321 319 314 314 316 321 323 326
305 305 306 308 310 312 313 315 314 315 315 313 313 313 310 314 317 321 322 325 329 327 327 323 322 321 321 321 321 321 319 319 322 319 319 317 318 318 314 315 312 318 322
305 306 310 312 312 311 309 309 309 311 313 311 312 312 310 310 313 317 319 322 325 325 326 327 323 322 323 319 321 321 321 322 325 323 322 320 322 322 320 317 316 316 318
304 307 308 308 309 309 309 309 308 306 311 313 313 312 311 310 311 315 318 318 320 322 322 324 322 322 322 321 320 322 324 321 319 321 320 323 324 326 324 321 319 317 317
301 305 305 304 304 307 309 309 308 308 310 312 311 313 313 310 312 314 314 316 317 318 319 318 319 318 318 316 316 318 316 315 314 316 317 318 321 318 315 315 318 315 310
301 301 303 304 304 305 306 309 309 309 310 308 309 311 312 310 312 312 313 312 313 315 314 314 313 315 315 314 313 313 312 315 313 314 313 313 315 314 314 314 317 317 312
299 301 303 304 305 305 306 307 306 307 306 306 306 307 307 311 311 312 311 309 309 309 310 311 311 313 313 312 312 311 310 309 308 308 308 308 309 310 311 311 316 317 316
300 301 302 303 305 306 303 303 304 304 304 304 304 305 305 305 309 310 308 306 305 306 307 310 310 310 310 309 309 308 304 306 303 303 303 305 307 306 307 308 310 311 313
302 301 302 304 303 302 302 303 303 304 303 304 305 304 303 304 304 307 305 304 303 305 305 308 308 307 308 307 306 305 305 302 300 300 300 300 304 305 306 305 304 306 309
298 299 300 299 300 301 302 302 303 303 304 304 304 304 303 302 303 308 306 306 305 305 305 306 306 306 306 306 305 305 303 302 301 299 299 299 303 302 303 305 303 304 306
298 298 298 298 299 300 302 303 303 304 303 303 303 303 304 303 309 307 305 304 304 304 304 303 303 303 304 304 304 302 299 300 301 301 304 301 303 304 304 304 303 305 303
298 298 297 297 298 299 301 302 303 303 303 302 304 305 307 309 306 304 302 303 302 303 302 301 301 301 301 303 301 299 297 298 299 302 303 305 307 309 308 304 303 303 304
299 299 299 299 298 299 301 303 303 302 303 303 304 307 309 305 303 302 301 301 300 300 300 300 300 299 300 301 303 300 300 300 300 300 302 303 305 305 308 309 308 306 303
298 298 298 299 299 299 302 302 303 303 302 303 306 305 304 302 301 300 300 299 298 299 298 299 299 299 299 299 300 303 301 301 300 300 301 302 304 303 304 305 304 304 303
297 297 297 298 298 300 301 301 303 303 302 304 305 303 301 299 299 299 298 298 298 298 298 298 299 298 298 299 298 301 301 300 300 300 301 301 301 301 303 301 300 300 299
296 296 297 296 296 299 301 301 302 303 303 304 302 301 299 298 298 297 297 298 298 298 295 296 294 294 294 297 297 299 298 301 301 301 300 300 300 300 300 301 299 299 298
296 296 296 296 298 298 299 301 301 301 302 301 299 299 299 297 297 297 297 297 297 298 297 296 297 299 294 296 297 301 301 297 299 300 299 299 301 299 299 300 299 299 299
296 296 296 296 297 298 300 300 300 300 300 300 299 298 298 297 297 297 297 297 299 299 298 299 299 298 296 296 297 298 300 299 299 299 299 299 296 296 296 299 302 300 301
294 296 295 296 297 298 300 298 300 299 299 299 298 298 298 299 299 298 298 300 300 299 298 298 299 300 300 299 297 296 297 300 298 300 301 299 295 295 296 297 295 296 298
294 295 295 296 297 298 298 297 298 299 298 298 297 297 298 298 299 298 299 300 300 297 297 297 296 296 297 299 298 298 299 300 303 303 300 297 296 297 298 296 296 297 297
293 295 296 295 296 298 300 299 299 299 298 297 297 297 295 295 295 296 295 295 293 293 293 292 290 293 295 295 295 299 303 302 303 304 303 300 299 298 298 298 297 297 296
294 295 295 295 297 299 298 299 299 299 297 297 297 297 295 294 293 293 293 293 292 293 291 292 291 291 293 294 293 295 300 301 299 302 301 299 298 297 295 296 297 297 297
294 295 296 297 298 298 298 298 300 299 296 295 294 292 291 290 290 290 291 293 292 292 291 291 292 294 293 293 294 294 294 294 296 300 298 297 296 295 295 295 295 296 296
Wind_Speed
4 6 5 7 7 9 9 9 8 7 5 4 7 6 8 7 8 9 14 14 15 13 12 8 8 3 3 7 6 3 5 3 1 2 3 4 6 6 5 5 5 6 7
10 16 16 18 17 10 8 9 8 7 7 3 3 2 4 4 5 8 11 11 10 12 8 5 2 4 4 4 4 5 1 4 3 3 2 3 5 4 5 4 4 7 5
14 11 13 9 7 9 7 6 3 4 3 5 3 3 4 4 6 10 10 11 12 10 8 5 3 5 4 4 3 4 5 4 4 5 4 1 5 3 3 5 5 6 4
11 9 8 8 6 7 6 6 6 6 5 7 6 5 3 4 4 7 8 9 10 9 8 6 4 5 4 5 3 4 5 3 7 4 3 3 4 4 6 2 4 4 4
8 9 8 8 7 7 5 5 5 5 6 6 5 5 3 3 3 7 11 10 8 8 6 7 9 5 1 3 4 4 3 2 5 5 3 1 3 4 4 7 4 3 3
7 6 5 4 6 6 6 6 7 6 7 5 3 2 5 5 6 8 8 8 7 6 12 7 4 4 4 6 5 3 4 2 7 4 2 2 3 3 2 4 6 4 0
8 9 11 11 10 10 9 7 7 7 7 7 3 2 4 6 5 5 6 9 8 7 8 8 8 6 7 9 8 6 6 5 4 4 4 3 4 2 2 3 6 4 2
2 5 2 4 6 7 8 7 8 9 9 10 8 5 5 4 5 4 3 4 5 5 8 6 5 6 6 7 5 3 5 3 3 3 4 4 4 2 2 3 3 6 3
7 4 5 5 7 6 8 7 9 8 9 9 7 6 5 5 6 6 4 3 4 5 6 6 5 5 5 6 4 4 4 3 4 4 3 3 3 3 4 4 4 5 4
1 1 4 5 5 7 6 7 5 4 5 5 5 6 6 5 5 5 5 5 4 5 5 7 6 5 6 7 5 4 5 4 3 3 4 3 2 4 4 4 5 5 6
0 4 5 6 6 5 6 4 5 7 7 7 6 6 7 7 5 3 2 3 3 5 5 5 5 5 5 6 5 4 5 4 4 3 4 5 4 3 3 4 4 5 3
6 7 5 6 6 5 5 4 5 6 7 7 9 8 7 7 7 4 2 2 2 2 4 4 4 5 5 5 5 4 4 4 5 6 7 5 4 4 4 3 5 5 3
5 6 6 5 5 6 6 6 5 5 6 7 11 10 9 7 7 2 3 3 3 3 3 4 5 6 6 5 4 4 3 4 4 6 5 5 5 5 4 3 3 3 3
6 6 7 7 7 6 6 5 5 5 8 10 11 9 9 7 3 1 4 4 5 4 4 5 6 7 7 5 4 4 5 6 5 6 6 6 5 6 6 5 5 3 4
6 7 7 7 6 7 7 6 5 6 9 11 11 10 10 2 3 5 5 6 5 5 4 6 7 7 6 5 4 5 6 5 6 6 6 7 11 15 12 4 6 5 3
6 7 7 8 8 8 9 9 5 7 9 9 10 10 4 6 6 5 5 5 4 4 3 8 6 6 4 8 8 3 3 4 4 4 5 5 11 11 9 10 16 12 4
6 8 11 11 8 9 12 13 8 7 8 9 8 7 6 7 6 6 5 6 5 4 5 5 5 5 4 3 4 5 2 3 3 4 4 5 5 9 8 17 20 21 24
7 9 10 8 7 11 11 12 10 8 7 8 5 6 6 6 6 7 6 5 3 4 3 4 4 3 4 9 8 7 5 5 5 4 4 4 5 5 7 10 11 11 9
7 7 7 5 7 11 11 12 8 7 6 5 6 6 6 7 6 6 4 4 4 5 5 3 5 6 5 9 7 5 3 4 4 4 6 4 4 6 8 10 11 10 10
6 6 6 5 5 9 11 10 6 5 5 6 7 7 6 6 5 3 4 4 3 3 3 4 4 6 6 9 8 4 3 5 4 5 5 10 5 9 6 6 5 7 7
7 6 5 6 10 9 8 7 6 6 7 7 7 6 5 5 4 4 3 5 5 3 3 4 5 6 6 6 7 6 4 3 5 6 6 4 7 8 8 6 5 7 6
7 4 6 8 7 7 5 5 3 6 6 6 7 6 5 3 3 5 5 4 4 5 5 5 5 5 5 9 10 9 9 7 6 5 5 5 12 13 12 8 9 10 8
5 4 7 7 7 6 4 4 5 5 6 6 5 4 4 5 4 4 5 4 4 4 4 4 4 4 6 6 10 11 11 12 8 7 9 15 14 13 13 16 14 10 5
4 6 6 6 7 7 3 8 6 6 5 5 4 5 5 5 5 4 4 5 4 4 4 4 4 4 4 4 4 4 5 9 8 8 8 9 12 15 11 9 9 6 5
5 5 5 5 6 5 7 7 6 5 5 4 4 5 4 5 5 5 3 3 2 2 1 1 2 4 4 3 3 6 5 6 7 7 7 8 7 8 7 6 7 6 6
7 5 4 3 5 6 7 6 4 4 4 4 4 4 4 4 4 4 4 4 2 3 7 4 2 2 2 8 11 13 13 13 10 8 7 7 7 6 5 5 6 6 7
Wind_Direction
89 74 80 55 56 65 65 49 38 2 13 6 3 357 349 346 346 347 337 335 332 310 273 240 243 244 76 98 79 35 315 283 331 33 329 301 276 272 268 270 275 276 274
48 46 51 54 54 55 53 42 24 7 14 358 326 352 307 315 346 347 347 337 347 359 345 282 153 125 114 114 117 137 13 290 208 172 139 303 323 292 272 273 263 266 269
79 56 60 58 70 77 93 108 90 51 10 349 340 337 320 304 360 357 343 342 342 344 350 11 53 92 105 142 201 52 350 292 263 196 160 277 242 318 270 268 261 274 281
57 51 36 38 49 38 35 41 48 13 357 8 5 21 324 344 341 333 328 339 351 354 350 351 26 42 57 85 95 137 159 188 288 313 189 207 189 240 308 301 297 299 332
55 44 32 16 4 18 359 24 11 356 353 18 19 333 352 318 333 359 335 343 340 350 344 16 358 19 206 219 192 228 33 82 282 250 271 258 233 209 208 294 314 328 29
52 61 68 25 348 345 351 0 359 321 325 353 3 30 349 3 355 358 349 327 342 359 8 15 0 358 336 8 335 21 9 319 255 271 295 243 263 274 235 273 292 256 118
40 31 18 357 339 340 344 329 329 327 330 312 335 357 4 5 341 352 352 344 350 352 359 21 24 4 29 38 2 10 48 346 344 341 328 315 310 276 272 264 286 289 215
125 140 220 287 326 314 310 322 338 331 333 320 334 347 9 0 311 332 2 342 351 335 332 347 30 11 3 52 3 336 43 299 305 335 360 325 316 334 281 263 270 285 252
47 23 0 336 298 313 313 332 325 328 343 351 355 351 348 336 311 330 360 348 341 332 331 337 358 25 9 9 18 339 16 11 1 352 337 314 322 314 295 270 264 260 260
156 346 301 304 307 308 303 320 330 352 306 331 357 347 324 311 306 334 359 353 356 334 332 327 343 13 20 1 6 354 356 8 353 345 328 340 323 300 303 305 282 257 265
341 293 308 318 301 332 12 12 358 348 343 335 324 318 313 316 321 320 354 354 351 338 332 344 350 2 18 5 12 359 355 5 345 348 359 346 333 329 322 325 310 297 267
314 340 344 349 352 345 335 335 339 345 335 320 323 312 306 312 319 302 36 344 20 356 343 351 14 24 23 27 4 346 350 14 5 6 14 345 343 345 348 354 325 301 272
29 12 5 344 327 316 319 330 339 325 324 316 321 306 305 300 304 23 18 16 36 37 12 25 35 38 17 30 349 336 348 27 17 26 5 357 357 357 344 339 352 327 322
14 356 338 311 308 311 309 299 304 308 322 323 313 295 291 290 254 51 61 40 33 33 39 58 44 42 22 7 8 3 10 20 17 14 2 1 16 19 11 2 358 4 51
342 304 293 294 294 306 290 281 287 305 318 320 305 308 302 75 62 50 52 54 39 40 30 63 51 38 37 9 23 22 21 14 17 13 8 10 32 28 24 14 7 19 34
295 316 311 306 299 304 304 298 286 305 314 312 307 317 8 65 59 53 44 54 44 46 44 55 39 41 31 22 41 56 28 31 34 17 358 358 18 5 26 66 64 53 47
330 328 323 309 311 311 317 313 287 304 303 301 322 20 34 55 50 51 46 36 24 26 32 41 24 10 317 18 52 24 37 77 45 16 5 6 22 10 48 72 74 64 64
320 316 315 311 311 318 321 314 295 290 294 307 25 36 55 56 46 44 26 21 5 24 29 25 13 356 339 359 357 7 22 49 36 26 28 44 27 34 68 78 78 72 72
290 291 296 310 320 328 322 317 305 301 305 34 40 54 63 60 49 42 10 6 5 25 9 8 356 354 346 354 12 39 1 38 41 23 34 27 63 90 97 96 89 84 76
291 289 298 303 316 329 325 322 341 330 47 50 57 61 61 63 60 35 354 336 4 9 358 353 357 6 18 12 17 57 22 32 18 26 42 38 47 90 116 112 109 90 82
304 305 332 326 327 329 330 352 337 42 59 69 71 62 58 54 26 360 339 330 352 358 18 22 8 33 39 38 43 29 49 34 47 30 22 18 35 57 62 88 94 93 89
316 3 333 332 327 315 311 327 13 63 73 69 65 54 45 25 334 325 324 17 22 39 27 32 25 11 12 26 27 35 48 40 61 37 42 51 65 67 59 69 83 77 73
325 339 329 326 318 310 301 324 89 85 82 79 65 42 344 348 0 16 26 53 32 26 18 29 27 357 12 22 17 35 54 54 61 61 59 61 53 64 61 53 55 59 61
333 326 324 324 318 321 20 95 99 99 95 72 50 13 35 28 26 36 30 56 38 48 38 41 34 16 26 7 353 13 46 46 51 48 53 58 61 60 54 51 47 52 54
312 305 308 311 325 76 82 85 95 100 83 66 27 38 36 47 51 42 25 55 339 292 125 107 96 73 37 1 26 45 44 58 52 61 52 48 47 48 40 40 53 50 51
297 303 307 322 92 95 90 96 106 81 81 54 26 49 57 42 40 33 14 333 292 21 48 26 151 70 119 86 65 59 50 51 54 58 56 54 49 48 46 47 57 51 59